Flag for U.S.A. Weather past 2 weeks in Anchorage, Alaska, U.S.A.

Now
28 °F

Sunny.


Feels Like: 24 °F
Forecast: 17 / 33 °F
Wind: 3 mph from North

Location: Lake Hood Seaplane

Current Time: Feb 27, 2015 at 2:45:06 PM

Latest Report: Feb 27, 2015 at 1:53 PM


Visibility: 10 mi

Pressure: 30.44 "Hg

Humidity: 58%

Dew point: 15 °F

Location of AnchorageLocation

Historic Weather in Anchorage — Graph

°F

Anchorage temperature yesterday

Maximum temperature yesterday: 30 °F (at 3:53 PM)
Minimum temperature yesterday: 20 °F (at 8:53 AM)
Average temperature yesterday: 24 °F

Past Weeks' High & Low Weather Summary

 TemperatureHumidityPressure
High45 °F (Feb 17, 10:53 AM)100% (Feb 21, 12:53 PM)30.58 "Hg (Feb 21, 12:53 PM)
Low14 °F (Feb 27, 6:53 AM)45% (Feb 17, 10:53 AM)29.54 "Hg (Feb 16, 3:53 PM)
Average31 °F77%30.05 "Hg
* Reported Feb 12 12:53 PM — Feb 27 12:53 PM, Anchorage, Weather by CustomWeather, © 2015

Note: Actual official high and low records may vary slightly from our data, if they occured in-between our weather recording intervals... More about our weather records

Advertising

Anchorage weather history for previous 24 hours

 ConditionsComfort  
Time TempWeatherWind HumidityBarometerVisibility
12:53 PM
Fri, Feb 27
25 °FSunny.No wind66%30.47 "Hg10 mi
11:53 AM23 °FSunny.No wind68%30.48 "Hg10 mi
10:53 AM22 °FSunny.7 mph75%30.48 "Hg10 mi
9:53 AM21 °FSunny.No wind81%30.49 "Hg10 mi
8:53 AM18 °FSunny.3 mph80%30.50 "Hg10 mi
7:53 AM16 °FClear.No wind80%30.50 "Hg10 mi
6:53 AM14 °FClear.No wind80%30.50 "Hg10 mi
5:53 AM15 °FClear.No wind80%30.51 "Hg10 mi
4:53 AM16 °FClear.No wind80%30.53 "Hg10 mi
3:53 AM16 °FClear.No wind80%30.55 "Hg8 mi
2:53 AM17 °FClear.No wind80%30.55 "Hg9 mi
1:53 AM18 °FClear.No wind80%30.55 "Hg9 mi
12:53 AM19 °FClear.No wind77%30.55 "Hg10 mi
11:53 PM
Thu, Feb 26
20 °FClear.No wind78%30.56 "Hg10 mi
10:53 PM22 °FClear.No wind75%30.56 "Hg9 mi
9:53 PM23 °FClear.No wind72%30.55 "Hg10 mi
8:53 PM23 °FClear.No wind74%30.56 "Hg10 mi
7:53 PM25 °FClear.No wind72%30.55 "Hg10 mi
6:53 PM26 °FClear.No wind74%30.54 "Hg10 mi
5:53 PM28 °FSunny.No wind72%30.55 "Hg10 mi
4:53 PM29 °FSunny.No wind69%30.55 "Hg10 mi
3:53 PM30 °FSunny.No wind66%30.56 "HgN/A
2:53 PM29 °FPassing clouds.No wind66%30.56 "HgN/A
Weather by CustomWeather, © 2015

See weather overviewHow to use our weather pages